TimeHST,TemperatureF,Dew PointF,Humidity,Sea Level PressureIn,VisibilityMPH,Wind Direction,Wind SpeedMPH,Gust SpeedMPH,PrecipitationIn,Events,Conditions,WindDirDegrees,DateUTC
12:54 AM,66.9,61.0,81,30.09,10.0,ENE,5.8,-,N/A,,Clear,60,2013-04-09 10:54:00
1:54 AM,68.0,61.0,78,30.07,10.0,NE,5.8,-,N/A,,Clear,40,2013-04-09 11:54:00
2:54 AM,68.0,62.1,81,30.04,10.0,NE,6.9,-,N/A,,Clear,40,2013-04-09 12:54:00
3:54 AM,66.9,61.0,81,30.03,10.0,NE,6.9,-,N/A,,Clear,50,2013-04-09 13:54:00
4:54 AM,66.9,61.0,81,30.02,10.0,Calm,Calm,-,N/A,,Clear,0,2013-04-09 14:54:00
5:54 AM,66.0,61.0,84,30.03,10.0,ENE,6.9,-,N/A,,Clear,60,2013-04-09 15:54:00
6:54 AM,66.0,61.0,84,30.04,10.0,North,5.8,-,N/A,,Clear,360,2013-04-09 16:54:00
7:54 AM,73.9,62.1,66,30.06,10.0,Calm,Calm,-,N/A,,Partly Cloudy,0,2013-04-09 17:54:00
8:54 AM,75.0,62.1,64,30.06,10.0,NE,6.9,-,N/A,,Mostly Cloudy,40,2013-04-09 18:54:00
9:54 AM,78.1,62.1,58,30.07,10.0,East,4.6,-,N/A,,Clear,80,2013-04-09 19:54:00
10:54 AM,80.1,63.0,56,30.06,10.0,NW,4.6,-,N/A,,Partly Cloudy,310,2013-04-09 20:54:00
11:54 AM,82.0,64.9,56,30.05,10.0,NE,11.5,18.4,N/A,,Scattered Clouds,40,2013-04-09 21:54:00
12:54 PM,80.1,63.0,56,30.03,10.0,NE,11.5,17.3,N/A,,Mostly Cloudy,50,2013-04-09 22:54:00
1:54 PM,77.0,63.0,62,30.01,10.0,SW,8.1,-,N/A,,Overcast,220,2013-04-09 23:54:00
2:54 PM,77.0,64.9,66,30.00,10.0,East,9.2,-,0.00,Rain,Light Rain,80,2013-04-10 00:54:00
3:54 PM,79.0,63.0,58,30.00,10.0,South,9.2,-,0.00,,Mostly Cloudy,180,2013-04-10 01:54:00
4:54 PM,77.0,64.0,64,30.01,10.0,NE,11.5,-,N/A,,Mostly Cloudy,50,2013-04-10 02:54:00
5:54 PM,75.0,63.0,66,30.02,10.0,NNE,6.9,-,N/A,,Scattered Clouds,30,2013-04-10 03:54:00
6:54 PM,71.1,63.0,75,30.04,10.0,NNE,5.8,-,N/A,,Clear,30,2013-04-10 04:54:00
7:54 PM,69.1,62.1,78,30.06,10.0,NE,4.6,-,N/A,,Clear,50,2013-04-10 05:54:00
8:54 PM,69.1,62.1,78,30.09,10.0,NNE,5.8,-,N/A,,Clear,30,2013-04-10 06:54:00
9:54 PM,68.0,62.1,81,30.11,10.0,NNE,3.5,-,N/A,,Clear,20,2013-04-10 07:54:00
10:54 PM,66.0,61.0,84,30.11,10.0,NNE,4.6,-,N/A,,Clear,30,2013-04-10 08:54:00
11:54 PM,69.1,64.0,84,30.09,10.0,North,9.2,-,N/A,,Clear,10,2013-04-10 09:54:00